Tracking 19283 objects as of 18-Nov-2018
HD Live streaming from Space Station
objects crossing your sky now

COSMOS 2528

Track COSMOS 2528 now!
10-day predictions


NORAD ID: 43657
Int'l Code: 2018-082A
Perigee: 907.6 km
Apogee: 917.3 km
Inclination: 67.2 °
Period: 103.1 minutes
Semi major axis: 7283 km
RCS: Unknown
Launch date: October 25, 2018
Source: Commonwealth of Independent States (former USSR) (CIS)
Launch site: PLESETSK MISSILE AND SPACE COMPLEX (PKMTR)
aabbcc
Your satellite tracking list
Your tracking list is empty




NASA's NSSDC Master Catalog

Two Line Element Set (TLE):
1 43657U 18082A   18321.78213626 -.00000075  00000-0  00000+0 0  9996
2 43657  67.1501 325.1251 0006666 265.1448  94.8876 13.96669842  3346
Source of the keplerian elements: AFSPC